[TLELIST] Archives

 

[list_settings.list_name] Current TLEs

February 5th 2021 PST

HST 1 20580U 90037B 21035.92271991 .00000481 00000-0 18170-4 0 9999 2 20580 28.4685 221.9395 0002844 75.8165 155.4513 15.09549464491051 ISS (ZARYA) 1 25544U 98067A 21036.40300926 .00000488 00000-0 17034-4 0 9995 2 25544 51.6462 274.5411 0002448 337.4553 4.6263 15.48939224268169 CXO 1 25867U 99040B 21038.53072403 .00000397 00000-0 00000+0 0 9996 2 25867 57.9449 259.9569 8112248 226.4319 0.5147 0.37801825 21088 ____________________________________________________________________ These 2-Line ...Continue Reading

[list_settings.list_name] Current TLEs

February 4th 2021 PST

HST 1 20580U 90037B 21035.21325233 .00000493 00000-0 18941-4 0 9999 2 20580 28.4685 226.6333 0002835 68.5822 259.5279 15.09549102491104 ISS (ZARYA) 1 25544U 98067A 21035.40109755 .00001021 00000-0 26733-4 0 9991 2 25544 51.6455 279.4958 0002256 336.6737 174.8916 15.48939538268010 CXO 1 25867U 99040B 21035.88614130 .00000437 00000-0 00000-0 0 9996 2 25867 58.0000 260.0390 8109664 226.4679 0.4426 0.37806877 9936 ____________________________________________________________________ These 2-Line ...Continue Reading

[list_settings.list_name] Current TLEs

February 3rd 2021 PST

HST 1 20580U 90037B 21033.93665510 .00000547 00000-0 22201-4 0 9995 2 20580 28.4686 235.0794 0002807 55.8832 160.9657 15.09548593490757 ISS (ZARYA) 1 25544U 98067A 21034.29548906 .00000958 00000-0 25582-4 0 9991 2 25544 51.6455 284.9652 0002224 332.5299 129.8983 15.48936022267844 CXO 1 25867U 99040B 21035.88614130 .00000437 00000-0 00000-0 0 9996 2 25867 58.0000 260.0390 8109664 226.4679 0.4426 0.37806877 9936 ____________________________________________________________________ These 2-Line ...Continue Reading

[list_settings.list_name] Current TLEs

February 2nd 2021 PST

HST 1 20580U 90037B 21032.37428241 .00000488 00000-0 18583-4 0 9992 2 20580 28.4689 245.4160 0002776 39.7550 309.7470 15.09547208490517 ISS (ZARYA) 1 25544U 98067A 21033.20490693 .00001165 00000-0 29351-4 0 9999 2 25544 51.6462 290.3602 0002203 328.6245 168.5260 15.48933604267674 CXO 1 25867U 99040B 21033.24007487 .00000555 00000-0 00000-0 0 9996 2 25867 58.0850 260.1676 8109057 226.4597 0.2424 0.37812434 9923 ____________________________________________________________________ These 2-Line ...Continue Reading

[list_settings.list_name] Current TLEs

February 1st 2021 PST

HST 1 20580U 90037B 21032.23731481 .00000490 00000-0 18748-4 0 9996 2 20580 28.4688 246.3221 0002771 38.3583 285.3357 15.09547135490657 ISS (ZARYA) 1 25544U 98067A 21032.23842859 .00000648 00000-0 19956-4 0 9991 2 25544 51.6453 295.1422 0002115 325.3593 179.0012 15.48929556267526 CXO 1 25867U 99040B 21033.24007487 .00000555 00000-0 00000-0 0 9996 2 25867 58.0850 260.1676 8109057 226.4597 0.2424 0.37812434 9923 ____________________________________________________________________ These 2-Line ...Continue Reading

[list_settings.list_name] Current TLEs

January 31st 2021 PST

HST 1 20580U 90037B 21030.35658831 .00000520 00000-0 20543-4 0 9994 2 20580 28.4692 258.7645 0002706 18.7543 144.1188 15.09545811490210 ISS (ZARYA) 1 25544U 98067A 21030.50133291 .00003153 00000-0 65512-4 0 9995 2 25544 51.6465 303.7326 0002392 315.8456 215.8385 15.48928800267250 CXO 1 25867U 99040B 21033.24007487 .00000555 00000-0 00000-0 0 9996 2 25867 58.0850 260.1676 8109057 226.4597 0.2424 0.37812434 9923 ____________________________________________________________________ These 2-Line ...Continue Reading

[list_settings.list_name] Current TLEs

January 30th 2021 PST

HST 1 20580U 90037B 21029.93357505 .00000541 00000-0 21843-4 0 9997 2 20580 28.4692 261.5630 0002684 14.3703 5.1372 15.09545560490156 ISS (ZARYA) 1 25544U 98067A 21030.23684081 .00003078 00000-0 64152-4 0 9998 2 25544 51.6460 305.0424 0002363 316.2883 179.5775 15.48926800267219 CXO 1 25867U 99040B 21033.24007487 .00000555 00000-0 00000+0 0 9995 2 25867 58.0850 260.1676 8109057 226.4597 0.2424 0.37812434 21062 ____________________________________________________________________ These 2-Line ...Continue Reading

[list_settings.list_name] Current TLEs

January 29th 2021 PST

HST 1 20580U 90037B 21028.97412037 .00000572 00000-0 23731-4 0 9994 2 20580 28.4693 267.9105 0002644 3.9698 191.1761 15.09544875490007 ISS (ZARYA) 1 25544U 98067A 21027.77992426 .00003336 00000-0 68893-4 0 9991 2 25544 51.6465 317.1909 0002399 302.6503 164.1536 15.48908950266831 CXO 1 25867U 99040B 21030.59399014 .00000618 00000-0 00000+0 0 9990 2 25867 58.1714 260.3008 8106420 226.4295 0.1191 0.37809404 21051 ____________________________________________________________________ These 2-Line ...Continue Reading

[list_settings.list_name] Current TLEs

January 28th 2021 PST

HST 1 20580U 90037B 21028.10093927 .00000631 00000-0 27339-4 0 9996 2 20580 28.4694 273.6872 0002614 354.5496 126.0084 15.09544426490020 ISS (ZARYA) 1 25544U 98067A 21027.77992426 .00003336 00000-0 68893-4 0 9991 2 25544 51.6465 317.1909 0002399 302.6503 164.1536 15.48908950266831 CXO 1 25867U 99040B 21030.59399014 .00000618 00000-0 00000+0 0 9990 2 25867 58.1714 260.3008 8106420 226.4295 0.1191 0.37809404 21051 ____________________________________________________________________ These 2-Line ...Continue Reading

[list_settings.list_name] Current TLEs

January 27th 2021 PST

HST 1 20580U 90037B 21027.05748844 .00000597 00000-0 25249-4 0 9993 2 20580 28.4696 280.5903 0002573 343.0673 215.7638 15.09543329489871 ISS (ZARYA) 1 25544U 98067A 21027.26187766 .00002991 00000-0 62627-4 0 9993 2 25544 51.6466 319.7519 0002342 300.4437 155.7890 15.48903499266750 CXO 1 25867U 99040B 21027.94968716 .00000569 00000-0 00000-0 0 9992 2 25867 58.2344 260.4070 8102288 226.4074 0.2394 0.37805068 9902 ____________________________________________________________________ These 2-Line ...Continue Reading
  • This mailing list is a public mailing list - anyone may join or leave, at any time.
  • This mailing list is announce-only.

International Space Station (ISS) / Hubble Space Telescope (HST) / Chandra X-Ray Observatory Orbital Data via EMAIL

Privacy Policy:

Private list